Regional Weather Roundup
Issued by NWS

Home | Current Version | Previous Version | Text Only | Print | Product List | Glossary Off
Versions: 1 2 3 4 5 6 7 8 9 10 11 12 13 14 15 16 17 18 19 20 21 22 23 24 25 26 27 28 29 30 31 32 33 34 35 36 37 38 39 40 41 42 43 44 45 46 47 48 49 50

000
ASUS43 KLMK 010210
RWRKY
KENTUCKY REGIONAL WEATHER ROUNDUP
NATIONAL WEATHER SERVICE LOUISVILLE KY
1000 PM EDT SUN AUG 31 2014

NOTE "FAIR" INDICATES FEW OR NO CLOUDS BELOW 12,000 FEET
WITH NO SIGNIFICANT WEATHER AND/OR OBSTRUCTIONS TO VISIBILITY.

KYZ001>023-026-027-061>063-070>075-010300-
WESTERN AND SOUTH CENTRAL KENTUCKY

CITY           SKY/WX    TMP DP  RH WIND       PRES   REMARKS
PADUCAH        CLEAR     78  71  79 S6        29.96S
HENDERSON      CLEAR     73  68  83 SE6       29.96S
OWENSBORO      CLEAR     75  75 100 VRB3      29.98R
HOPKINSVILLE   CLEAR     76  76  99 S5        30.01S
BOWLING GREEN  CLEAR     75  71  87 S5        30.02S
GLASGOW        PTCLDY    72  72 100 CALM      30.04R
$$

KYZ024-025-028>034-038-045-046-053-010300-
NORTH CENTRAL KENTUCKY

CITY           SKY/WX    TMP DP  RH WIND       PRES   REMARKS
LOUISVILLE/SDF CLOUDY    76  72  87 S6        29.99F
LOUISVILLE/LOU LGT RAIN  75  72  90 VRB3      30.01S FOG
FORT KNOX      MOCLDY    73  73 100 S2        30.00S
$$

KYZ035>037-039>044-047>052-055>060-089>105-010300-
NORTHEAST KENTUCKY

CITY           SKY/WX    TMP DP  RH WIND       PRES   REMARKS
LEXINGTON      CLOUDY    75  71  87 S5        30.04R
COVINGTON      PTCLDY    72  68  87 S6        30.01R
FRANKFORT      LGT RAIN  73  72  96 S3        30.02R
$$

KYZ054-064>069-076>088-106>120-010300-
SOUTHEAST KENTUCKY

CITY           SKY/WX    TMP DP  RH WIND       PRES   REMARKS
JACKSON        MOCLDY    72  70  93 VRB3      30.08S
LONDON         CLOUDY    75  70  84 S5        30.08S
SOMERSET       CLOUDY    72  72 100 CALM      30.08R
MIDDLESBORO    CLOUDY    73  70  91 S7        30.11S
MONTICELLO     MOCLDY    73  72  97 S6        30.08S
$$




USA.gov is the U.S. government's official web portal to all federal, state and local government web resources and services.